Current Weather Conditions: station 63110

sailwx.info

Wind from 160 at 5 knots

Wave height 1.7 meters (5 feet), 9 second period

Air temperature 5.5° C
Visibility: greater than 10.8 NM
Dewpoint 0.8° C

Last reported at 2018-Feb-21 22:00 UTC.
Time now 2018-Feb-21 23:29 UTC

Location: N 59°30' E 001°30'.
View on Google Maps.

See reports from other nearby stations

  
Tides and Currents Weather Stations Pressure Air Temp Water Temp Dewpoint Dewpoint Depression Visibility Wind Speed Wind Dir Waves Ship Positions
date/time (UTC)wind fromknots sea level pressurealtimeterstation pressurevisibilityair tempwater tempwave heightnotes
2018-Feb-21 22:00 160 5 10.8 5.5 1.7
2018-Feb-21 21:00 140 4 10.8 5.7 1.7
2018-Feb-21 20:00 100 1 10.8 7.5 1.7
2018-Feb-21 19:00 10.8 7.4 1.8
2018-Feb-21 18:00 360 1 5.410.0 2.0
2018-Feb-21 17:00 330 2 10.8 7.8 2.1
2018-Feb-21 16:00 320 4 10.8 8.6 2.0
2018-Feb-21 15:00 320 4 10.810.0 1.6
2018-Feb-21 14:00 330 4 10.8 9.1 1.8
2018-Feb-21 13:00 320 4 10.8 8.4 1.8
2018-Feb-21 12:00 330 4 10.810.9 2.0
2018-Feb-21 11:00 330 4 10.810.0 1.9
2018-Feb-21 10:00 330 6 10.8 8.7 2.0
2018-Feb-21 09:00 330 6 10.8 6.2 2.0
2018-Feb-21 08:00 330 12 10.8 5.7 2.3
2018-Feb-21 07:00 330 12 10.8 6.2 2.4
2018-Feb-21 06:00 330 11 10.8 6.3 2.4
2018-Feb-21 05:00 330 13 10.8 6.0 2.3
2018-Feb-21 04:00 330 12 10.8 6.0 2.4
2018-Feb-21 03:00 320 12 10.8 6.0 2.3
2018-Feb-21 02:00 320 13 10.8 6.0 2.4
2018-Feb-21 01:00 330 13 10.8 5.8 2.2
2018-Feb-21 00:00 320 14 10.8 5.9 2.2
2018-Feb-20 23:00 320 13 5.4 6.3 2.0
2018-Feb-20 22:00 330 11 5.4 6.4 2.3
2018-Feb-20 21:00 270 5 10.8 6.4 2.2
2018-Feb-20 20:00 340 4 10.8 5.9 2.3
2018-Feb-20 19:00 200 8 10.8 5.4 2.4
2018-Feb-20 18:00 190 13 10.8 4.8 2.5
2018-Feb-20 17:00 190 14 5.4 4.2 2.6
2018-Feb-20 16:00 190 15 5.4 4.0 2.6
2018-Feb-20 15:00 190 15 2.2 4.0 2.4
2018-Feb-20 14:00 190 17 10.8 4.1 2.2
2018-Feb-20 13:00 190 17 10.8 4.3 2.2
2018-Feb-20 12:00 180 20 5.4 3.9 2.3
2018-Feb-20 11:00 170 20 5.4 3.7 2.5
2018-Feb-20 10:00 170 20 5.4 3.7 2.6
2018-Feb-20 09:00 170 22 10.8 3.4 2.5
2018-Feb-20 08:00 170 22 10.8 3.4 2.9
2018-Feb-20 07:00 170 22 5.4 3.5 3.0
2018-Feb-20 06:00 170 24 10.8 3.5 2.9
2018-Feb-20 05:00 160 26 10.8 3.6 2.9
2018-Feb-20 04:00 160 27 10.8 3.5 3.0
2018-Feb-20 03:00 160 27 10.8 4.2 2.7
2018-Feb-20 02:00 160 27 10.8 4.3 2.4
2018-Feb-20 01:00 160 27 10.8 4.6 2.3
2018-Feb-20 00:00 160 26 10.8 4.6 2.2
2018-Feb-19 23:00 160 25 10.8 4.5 1.9